Weather Roundup
Issued by NWS Chicago, IL

Home | Current Version | Previous Version | Graphics & Text | Print | Product List | Glossary On
Versions: 1 2 3 4 5 6 7 8 9 10 11 12 13 14 15 16 17 18 19 20 21 22 23 24 25 26 27 28 29 30 31 32 33 34 35 36 37 38 39 40 41 42 43 44 45 46 47 48 49 50
000
NZUS59 KLOT 191208
HRRLOT

CHICAGO AREA WEATHER ROUNDUP
NATIONAL WEATHER SERVICE CHICAGO/ROMEOVILLE IL
600 AM CST SUN FEB 19 2017

NOTE: "FAIR" INDICATES FEW OR NO CLOUDS BELOW 12,000 FEET WITH NO
SIGNIFICANT WEATHER AND/OR OBSTRUCTIONS TO VISIBILITY.

* THESE STATIONS ARE NOT UNDER NWS QUALITY CONTROL. THEY ALSO MAY NOT
  REPORT WEATHER SUCH AS PRECIPITATION OR FOG.

ILZ005-006-012>014-019>023-191300-
NORTHEAST ILLINOIS

CITY           SKY/WX    TMP DP  RH WIND       PRES   REMARKS
OHARE          CLEAR     39  34  82 W6        29.97R
6HR MIN TEMP:  35; 6HR MAX TEMP:  45;

MIDWAY         CLEAR     39  33  79 CALM      29.98R
6HR MIN TEMP:  39; 6HR MAX TEMP:  47;

AURORA         CLEAR     31  28  89 CALM      29.98R
6HR MIN TEMP:  30; 6HR MAX TEMP:  42;

LANSING*       CLEAR     33  33 100 CALM      29.98R
JOLIET*        CLEAR     33  32  96 CALM      29.99R
WAUKEGAN       CLEAR     41  32  70 NW7       29.97R
6HR MIN TEMP:  36; 6HR MAX TEMP:  46;

DUPAGE AIRPORT CLEAR     32  28  85 CALM      29.98R FOG
6HR MIN TEMP:  31; 6HR MAX TEMP:  39;

WHEELING       CLEAR     32  29  88 CALM      29.98R
6HR MIN TEMP:  30; 6HR MAX TEMP:  39;

KANKAKEE*      CLEAR     32  31  97 CALM      29.99R
MORRIS*        CLEAR     33  31  90 CALM      29.98R
LEWIS AIRPORT* CLEAR     36  36 100 CALM      29.99R
NORTHERLY ISL    N/A     46  37  71 SW6         N/A
$$

WIZ051-052-058>065-066-070>072-191300-
SOUTHEAST WISCONSIN

CITY           SKY/WX    TMP DP  RH WIND       PRES   REMARKS
MILWAUKEE      CLEAR     44  30  57 NW8       29.96R
6HR MIN TEMP:  34; 6HR MAX TEMP:  50;

KENOSHA*       CLEAR     41  31  67 NW3       29.97R
RACINE*        CLEAR     42  30  62 NW8       29.98R
WAUKESHA       CLEAR     39  28  65 W3        29.96R
WEST BEND      CLEAR     39  32  75 CALM      29.96R
$$

INZ001>003-010>013-019-020-191300-
NORTHWEST INDIANA

CITY           SKY/WX    TMP DP  RH WIND       PRES   REMARKS
GARY*          CLEAR     32  30  93 CALM      29.98R
MICHIGAN CITY* NOT AVBL
RENSSELAER*    NOT AVBL
VALPARAISO     PTCLDY    37  34  89 W3        29.98R FOG
$$

LMZ740>746-191300-
SOUTHERN LAKE MICHIGAN

STATION/POSITION TIME  SKY/WX   TEMP WIND        PRES    VSBY
                                AIR  DIR/SP/G
                 (UTC)          (F)  (DEG/KT/KT) (MB)    (MI)
HARRISON CRIB    1140            52  270/  6/  7   N/A
BURNHAM HARBOR   1200            45  260/  5/  6   N/A
CALUMET HARBOR   1136            42  260/  2/  3 1014.3R
BURNS HARBOR     1140            44  230/  3/  3 1015.6R
MICHIGAN CITY    1140            43  210/  5/  6   N/A
$$

ABBREVIATIONS USED IN REMARKS
   TC - TEMPERATURE IN CELSIUS
  WCI - WIND CHILL INDEX
   HX - HEAT INDEX
  VSB - VISIBILITY
$$




USA.gov is the U.S. government's official web portal to all federal, state and local government web resources and services.